"Sample Date","Sample Time","Sensor Name","Sample Value","Units","Flow Rate","Sample Interval","Sample Volume","Laser Status","Number Channels","Micron Size 0","Counts/Channel 0","Micron Size 1","Counts/Channel 1","Micron Size 2","Counts/Channel 2","Micron Size 3","Counts/Channel 3","Micron Size 4","Counts/Channel 4","Micron Size 5","Counts/Channel 5","Micron Size 6","Counts/Channel 6","Micron Size 7","Counts/Channel 7","Micron Size 8","Counts/Channel 8","Micron Size 9","Counts/Channel 9","Micron Size 10","Counts/Channel 10","Micron Size 11","Counts/Channel 11","Micron Size 12","Counts/Channel 12","Micron Size 13","Counts/Channel 13","Micron Size 14","Counts/Channel 14","Micron Size 15","Counts/Channel 15","Micron Size 16","Counts/Channel 16","Micron Size 17","Counts/Channel 17","Micron Size 18","Counts/Channel 18","Micron Size 19","Counts/Channel 19","Micron Size 20","Counts/Channel 20","Micron Size 21","Counts/Channel 21","Micron Size 22","Counts/Channel 22","Micron Size 23","Counts/Channel 23","Micron Size 24","Counts/Channel 24","Micron Size 25","Counts/Channel 25","Micron Size 26","Counts/Channel 26","Micron Size 27","Counts/Channel 27","Micron Size 28","Counts/Channel 28","Micron Size 29","Counts/Channel 29","Micron Size 30","Counts/Channel 30","Micron Size 31","Counts/Channel 31"
"07/09/06","08:00:01","AMMA06",29101.000,"cc",28310.193,6.00,2831.020,1,6,0.100,17698.000,0.200,10119.000,0.300,1109.000,0.500,121.000,1.000,54.000,5.000,0
"07/09/06","08:00:07","AMMA06",29246.000,"cc",28295.193,6.00,2829.520,1,6,0.100,17736.000,0.200,10208.000,0.300,1092.000,0.500,122.000,1.000,88.000,5.000,0
"07/09/06","08:00:13","AMMA06",29328.000,"cc",28365.809,6.00,2836.581,1,6,0.100,17855.000,0.200,10191.000,0.300,1109.000,0.500,112.000,1.000,61.000,5.000,0
"07/09/06","08:00:19","AMMA06",29477.000,"cc",28341.180,6.00,2834.118,1,6,0.100,17910.000,0.200,10314.000,0.300,1076.000,0.500,117.000,1.000,60.000,5.000,0
"07/09/06","08:00:25","AMMA06",29487.000,"cc",28297.740,6.00,2829.774,1,6,0.100,17745.000,0.200,10426.000,0.300,1111.000,0.500,139.000,1.000,66.000,5.000,0
"07/09/06","08:00:31","AMMA06",29221.000,"cc",28285.404,6.00,2828.541,1,6,0.100,17689.000,0.200,10239.000,0.300,1116.000,0.500,121.000,1.000,56.000,5.000,0
"07/09/06","08:00:37","AMMA06",29418.000,"cc",28340.346,6.00,2834.035,1,6,0.100,17690.000,0.200,10303.000,0.300,1148.000,0.500,184.000,1.000,93.000,5.000,0
"07/09/06","08:00:43","AMMA06",29608.000,"cc",28266.234,6.00,2826.624,1,6,0.100,17884.000,0.200,10430.000,0.300,1076.000,0.500,152.000,1.000,66.000,5.000,0
"07/09/06","08:00:49","AMMA06",29622.000,"cc",28319.344,6.00,2831.935,1,6,0.100,17895.000,0.200,10372.000,0.300,1146.000,0.500,130.000,1.000,79.000,5.000,0
"07/09/06","08:00:55","AMMA06",29206.000,"cc",28340.346,6.00,2834.035,1,6,0.100,17703.000,0.200,10226.000,0.300,1074.000,0.500,129.000,1.000,74.000,5.000,0
"07/09/06","08:01:01","AMMA06",29338.000,"cc",28335.856,6.00,2833.586,1,6,0.100,17758.000,0.200,10256.000,0.300,1109.000,0.500,149.000,1.000,66.000,5.000,0
"07/09/06","08:01:07","AMMA06",29563.000,"cc",28325.277,6.00,2832.528,1,6,0.100,17861.000,0.200,10454.000,0.300,1063.000,0.500,116.000,1.000,69.000,5.000,0
"07/09/06","08:01:13","AMMA06",29325.000,"cc",28336.361,6.00,2833.636,1,6,0.100,17870.000,0.200,10163.000,0.300,1096.000,0.500,121.000,1.000,75.000,5.000,0
"07/09/06","08:01:19","AMMA06",29712.000,"cc",28256.902,6.00,2825.690,1,6,0.100,18007.000,0.200,10342.000,0.300,1162.000,0.500,137.000,1.000,64.000,5.000,0
"07/09/06","08:01:25","AMMA06",29608.000,"cc",28377.686,6.00,2837.769,1,6,0.100,17690.000,0.200,10631.000,0.300,1071.000,0.500,127.000,1.000,89.000,5.000,0
"07/09/06","08:01:31","AMMA06",29532.000,"cc",28307.289,6.00,2830.729,1,6,0.100,17721.000,0.200,10441.000,0.300,1133.000,0.500,157.000,1.000,80.000,5.000,0
"07/09/06","08:01:37","AMMA06",29219.000,"cc",28362.166,6.00,2836.217,1,6,0.100,17874.000,0.200,10118.000,0.300,1034.000,0.500,124.000,1.000,69.000,5.000,0
"07/09/06","08:01:43","AMMA06",29386.000,"cc",28323.760,6.00,2832.376,1,6,0.100,17790.000,0.200,10273.000,0.300,1110.000,0.500,136.000,1.000,77.000,5.000,0
"07/09/06","08:01:49","AMMA06",29370.000,"cc",28305.424,6.00,2830.543,1,6,0.100,17875.000,0.200,10214.000,0.300,1088.000,0.500,120.000,1.000,73.000,5.000,0
"07/09/06","08:01:55","AMMA06",29382.000,"cc",28314.869,6.00,2831.487,1,6,0.100,17781.000,0.200,10368.000,0.300,1035.000,0.500,127.000,1.000,71.000,5.000,0
"07/09/06","08:02:01","AMMA06",29543.000,"cc",28285.361,6.00,2828.536,1,6,0.100,18001.000,0.200,10271.000,0.300,1075.000,0.500,128.000,1.000,68.000,5.000,0
"07/09/06","08:02:07","AMMA06",29453.000,"cc",28302.647,6.00,2830.265,1,6,0.100,17687.000,0.200,10386.000,0.300,1153.000,0.500,144.000,1.000,83.000,5.000,0
"07/09/06","08:02:13","AMMA06",29323.000,"cc",28307.430,6.00,2830.743,1,6,0.100,17805.000,0.200,10207.000,0.300,1099.000,0.500,140.000,1.000,72.000,5.000,0
"07/09/06","08:02:19","AMMA06",29001.000,"cc",28380.758,6.00,2838.076,1,6,0.100,17697.000,0.200,10013.000,0.300,1081.000,0.500,132.000,1.000,78.000,5.000,0
"07/09/06","08:02:25","AMMA06",29624.000,"cc",28350.340,6.00,2835.034,1,6,0.100,17923.000,0.200,10317.000,0.300,1139.000,0.500,181.000,1.000,64.000,5.000,0
"07/09/06","08:02:31","AMMA06",29372.000,"cc",28338.453,6.00,2833.846,1,6,0.100,17732.000,0.200,10269.000,0.300,1156.000,0.500,141.000,1.000,74.000,5.000,0
"07/09/06","08:02:37","AMMA06",29188.000,"cc",28293.748,6.00,2829.375,1,6,0.100,17855.000,0.200,10081.000,0.300,1054.000,0.500,114.000,1.000,84.000,5.000,0
"07/09/06","08:02:43","AMMA06",29478.000,"cc",28228.719,6.00,2822.872,1,6,0.100,17955.000,0.200,10211.000,0.300,1099.000,0.500,136.000,1.000,77.000,5.000,0
"07/09/06","08:02:49","AMMA06",29067.000,"cc",28337.846,6.00,2833.785,1,6,0.100,17633.000,0.200,10170.000,0.300,1057.000,0.500,154.000,1.000,53.000,5.000,0
"07/09/06","08:02:55","AMMA06",29238.000,"cc",28327.139,6.00,2832.714,1,6,0.100,17785.000,0.200,10178.000,0.300,1065.000,0.500,135.000,1.000,75.000,5.000,0
"07/09/06","08:03:01","AMMA06",28902.000,"cc",28347.959,6.00,2834.796,1,6,0.100,17742.000,0.200,9944.000,0.300,1003.000,0.500,141.000,1.000,72.000,5.000,0
"07/09/06","08:03:07","AMMA06",29176.000,"cc",28319.408,6.00,2831.941,1,6,0.100,17857.000,0.200,10065.000,0.300,1078.000,0.500,113.000,1.000,63.000,5.000,0
"07/09/06","08:03:13","AMMA06",28802.000,"cc",28245.420,6.00,2824.542,1,6,0.100,17594.000,0.200,9941.000,0.300,1053.000,0.500,139.000,1.000,75.000,5.000,0
"07/09/06","08:03:19","AMMA06",28817.000,"cc",28345.082,6.00,2834.508,1,6,0.100,17549.000,0.200,9973.000,0.300,1095.000,0.500,134.000,1.000,66.000,5.000,0
"07/09/06","08:03:25","AMMA06",28954.000,"cc",28324.145,6.00,2832.415,1,6,0.100,17474.000,0.200,10176.000,0.300,1120.000,0.500,123.000,1.000,61.000,5.000,0
"07/09/06","08:03:31","AMMA06",28912.000,"cc",28312.977,6.00,2831.298,1,6,0.100,17529.000,0.200,10124.000,0.300,1051.000,0.500,125.000,1.000,83.000,5.000,0
"07/09/06","08:03:37","AMMA06",29007.000,"cc",28318.106,6.00,2831.811,1,6,0.100,17781.000,0.200,9969.000,0.300,1035.000,0.500,138.000,1.000,84.000,5.000,0
"07/09/06","08:03:43","AMMA06",28740.000,"cc",28309.615,6.00,2830.962,1,6,0.100,17443.000,0.200,10044.000,0.300,1061.000,0.500,116.000,1.000,76.000,5.000,0
"07/09/06","08:03:49","AMMA06",28988.000,"cc",28331.752,6.00,2833.175,1,6,0.100,17754.000,0.200,9991.000,0.300,1053.000,0.500,133.000,1.000,57.000,5.000,0
"07/09/06","08:03:55","AMMA06",29117.000,"cc",28304.838,6.00,2830.484,1,6,0.100,17711.000,0.200,10172.000,0.300,1069.000,0.500,105.000,1.000,60.000,5.000,0
"07/09/06","08:04:01","AMMA06",29208.000,"cc",28286.563,6.00,2828.657,1,6,0.100,17884.000,0.200,10040.000,0.300,1081.000,0.500,140.000,1.000,63.000,5.000,0
"07/09/06","08:04:07","AMMA06",29054.000,"cc",28338.902,6.00,2833.890,1,6,0.100,17671.000,0.200,10056.000,0.300,1129.000,0.500,133.000,1.000,65.000,5.000,0
"07/09/06","08:04:13","AMMA06",28894.000,"cc",28351.953,6.00,2835.196,1,6,0.100,17750.000,0.200,9920.000,0.300,1012.000,0.500,125.000,1.000,87.000,5.000,0
"07/09/06","08:04:19","AMMA06",28943.000,"cc",28275.902,6.00,2827.590,1,6,0.100,17767.000,0.200,9950.000,0.300,1018.000,0.500,133.000,1.000,75.000,5.000,0
"07/09/06","08:04:25","AMMA06",28895.000,"cc",28354.098,6.00,2835.410,1,6,0.100,17932.000,0.200,9751.000,0.300,1005.000,0.500,135.000,1.000,72.000,5.000,0
"07/09/06","08:04:31","AMMA06",28646.000,"cc",28314.412,6.00,2831.441,1,6,0.100,17701.000,0.200,9773.000,0.300,985.000,0.500,111.000,1.000,76.000,5.000,0
"07/09/06","08:04:37","AMMA06",28379.000,"cc",28257.840,6.00,2825.784,1,6,0.100,17657.000,0.200,9573.000,0.300,952.000,0.500,127.000,1.000,70.000,5.000,0
"07/09/06","08:04:43","AMMA06",28570.000,"cc",28339.732,6.00,2833.973,1,6,0.100,17615.000,0.200,9718.000,0.300,1048.000,0.500,119.000,1.000,70.000,5.000,0
"07/09/06","08:04:49","AMMA06",29097.000,"cc",28333.529,6.00,2833.353,1,6,0.100,17766.000,0.200,10136.000,0.300,1019.000,0.500,119.000,1.000,57.000,5.000,0
"07/09/06","08:04:55","AMMA06",29243.000,"cc",28322.416,6.00,2832.242,1,6,0.100,17788.000,0.200,10252.000,0.300,1010.000,0.500,125.000,1.000,68.000,5.000,0
"07/09/06","08:05:01","AMMA06",29248.000,"cc",28312.787,6.00,2831.279,1,6,0.100,17820.000,0.200,10191.000,0.300,1047.000,0.500,129.000,1.000,61.000,5.000,0
"07/09/06","08:05:07","AMMA06",29202.000,"cc",28314.434,6.00,2831.444,1,6,0.100,17917.000,0.200,10033.000,0.300,1062.000,0.500,126.000,1.000,64.000,5.000,0
"07/09/06","08:05:13","AMMA06",29042.000,"cc",28277.885,6.00,2827.789,1,6,0.100,17908.000,0.200,9894.000,0.300,1031.000,0.500,133.000,1.000,76.000,5.000,0
"07/09/06","08:05:19","AMMA06",29083.000,"cc",28344.363,6.00,2834.437,1,6,0.100,17939.000,0.200,9907.000,0.300,1017.000,0.500,148.000,1.000,72.000,5.000,0
"07/09/06","08:05:25","AMMA06",28786.000,"cc",28360.775,6.00,2836.078,1,6,0.100,17523.000,0.200,9993.000,0.300,1068.000,0.500,136.000,1.000,66.000,5.000,0
"07/09/06","08:05:31","AMMA06",29040.000,"cc",28308.406,6.00,2830.841,1,6,0.100,17880.000,0.200,9912.000,0.300,1042.000,0.500,134.000,1.000,72.000,5.000,0
"07/09/06","08:05:37","AMMA06",28692.000,"cc",28305.273,6.00,2830.528,1,6,0.100,17737.000,0.200,9766.000,0.300,983.000,0.500,124.000,1.000,82.000,5.000,0
"07/09/06","08:05:43","AMMA06",29082.000,"cc",28287.406,6.00,2828.741,1,6,0.100,17832.000,0.200,10029.000,0.300,1033.000,0.500,128.000,1.000,60.000,5.000,0
"07/09/06","08:05:49","AMMA06",29400.000,"cc",28318.033,6.00,2831.804,1,6,0.100,18090.000,0.200,10028.000,0.300,1066.000,0.500,132.000,1.000,84.000,5.000,0
"07/09/06","08:05:55","AMMA06",28990.000,"cc",28331.277,6.00,2833.128,1,6,0.100,17819.000,0.200,9944.000,0.300,1041.000,0.500,112.000,1.000,74.000,5.000,0
"07/09/06","08:06:01","AMMA06",28984.000,"cc",28334.764,6.00,2833.477,1,6,0.100,17841.000,0.200,9927.000,0.300,993.000,0.500,155.000,1.000,68.000,5.000,0
"07/09/06","08:06:07","AMMA06",28942.000,"cc",28311.215,6.00,2831.122,1,6,0.100,17877.000,0.200,9864.000,0.300,994.000,0.500,131.000,1.000,76.000,5.000,0
"07/09/06","08:06:13","AMMA06",29003.000,"cc",28276.732,6.00,2827.673,1,6,0.100,17883.000,0.200,9889.000,0.300,1041.000,0.500,118.000,1.000,72.000,5.000,0
"07/09/06","08:06:19","AMMA06",29002.000,"cc",28325.377,6.00,2832.538,1,6,0.100,17984.000,0.200,9816.000,0.300,996.000,0.500,122.000,1.000,84.000,5.000,0
"07/09/06","08:06:25","AMMA06",28787.000,"cc",28309.381,6.00,2830.938,1,6,0.100,17717.000,0.200,9880.000,0.300,992.000,0.500,139.000,1.000,59.000,5.000,0
"07/09/06","08:06:31","AMMA06",29198.000,"cc",28335.072,6.00,2833.507,1,6,0.100,18142.000,0.200,9801.000,0.300,1059.000,0.500,114.000,1.000,82.000,5.000,0
"07/09/06","08:06:37","AMMA06",28775.000,"cc",28326.432,6.00,2832.643,1,6,0.100,17759.000,0.200,9809.000,0.300,1035.000,0.500,115.000,1.000,57.000,5.000,0
"07/09/06","08:06:43","AMMA06",28920.000,"cc",28310.777,6.00,2831.078,1,6,0.100,17879.000,0.200,9816.000,0.300,1014.000,0.500,141.000,1.000,70.000,5.000,0
"07/09/06","08:06:49","AMMA06",29034.000,"cc",28295.875,6.00,2829.588,1,6,0.100,17764.000,0.200,9995.000,0.300,1084.000,0.500,132.000,1.000,59.000,5.000,0
"07/09/06","08:06:55","AMMA06",29224.000,"cc",28304.188,6.00,2830.419,1,6,0.100,17807.000,0.200,10165.000,0.300,1050.000,0.500,122.000,1.000,80.000,5.000,0
"07/09/06","08:07:01","AMMA06",28810.000,"cc",28323.227,6.00,2832.323,1,6,0.100,17660.000,0.200,9858.000,0.300,1115.000,0.500,116.000,1.000,61.000,5.000,0
"07/09/06","08:07:07","AMMA06",28966.000,"cc",28328.201,6.00,2832.820,1,6,0.100,17811.000,0.200,9893.000,0.300,1041.000,0.500,140.000,1.000,81.000,5.000,0
"07/09/06","08:07:13","AMMA06",28993.000,"cc",28347.783,6.00,2834.779,1,6,0.100,17825.000,0.200,9895.000,0.300,1066.000,0.500,130.000,1.000,77.000,5.000,0
"07/09/06","08:07:19","AMMA06",29218.000,"cc",28281.131,6.00,2828.113,1,6,0.100,17728.000,0.200,10216.000,0.300,1060.000,0.500,148.000,1.000,66.000,5.000,0
"07/09/06","08:07:25","AMMA06",29143.000,"cc",28313.106,6.00,2831.311,1,6,0.100,17840.000,0.200,10068.000,0.300,1032.000,0.500,133.000,1.000,70.000,5.000,0
"07/09/06","08:07:31","AMMA06",28929.000,"cc",28350.566,6.00,2835.057,1,6,0.100,17691.000,0.200,9971.000,0.300,1045.000,0.500,135.000,1.000,87.000,5.000,0
"07/09/06","08:07:37","AMMA06",28796.000,"cc",28292.305,6.00,2829.231,1,6,0.100,17672.000,0.200,9895.000,0.300,1033.000,0.500,124.000,1.000,72.000,5.000,0
"07/09/06","08:07:43","AMMA06",28666.000,"cc",28353.158,6.00,2835.316,1,6,0.100,17396.000,0.200,9977.000,0.300,1064.000,0.500,133.000,1.000,96.000,5.000,0
"07/09/06","08:07:49","AMMA06",28962.000,"cc",28311.875,6.00,2831.188,1,6,0.100,17716.000,0.200,10032.000,0.300,998.000,0.500,128.000,1.000,88.000,5.000,0
"07/09/06","08:07:55","AMMA06",28780.000,"cc",28311.240,6.00,2831.124,1,6,0.100,17546.000,0.200,9982.000,0.300,1062.000,0.500,119.000,1.000,71.000,5.000,0
"07/09/06","08:08:01","AMMA06",29259.000,"cc",28291.190,6.00,2829.119,1,6,0.100,17905.000,0.200,10095.000,0.300,1048.000,0.500,141.000,1.000,70.000,5.000,0
"07/09/06","08:08:07","AMMA06",29223.000,"cc",28336.629,6.00,2833.663,1,6,0.100,17776.000,0.200,10168.000,0.300,1055.000,0.500,128.000,1.000,96.000,5.000,0
"07/09/06","08:08:13","AMMA06",28980.000,"cc",28338.775,6.00,2833.878,1,6,0.100,17701.000,0.200,10009.000,0.300,1059.000,0.500,129.000,1.000,82.000,5.000,0
"07/09/06","08:08:19","AMMA06",29014.000,"cc",28322.086,6.00,2832.209,1,6,0.100,17789.000,0.200,9966.000,0.300,1067.000,0.500,123.000,1.000,69.000,5.000,0
"07/09/06","08:08:25","AMMA06",29430.000,"cc",28311.348,6.00,2831.135,1,6,0.100,17885.000,0.200,10254.000,0.300,1117.000,0.500,125.000,1.000,49.000,5.000,0
"07/09/06","08:08:31","AMMA06",29144.000,"cc",28283.082,6.00,2828.308,1,6,0.100,17801.000,0.200,10068.000,0.300,1067.000,0.500,123.000,1.000,85.000,5.000,0
"07/09/06","08:08:37","AMMA06",29335.000,"cc",28323.100,6.00,2832.310,1,6,0.100,17861.000,0.200,10241.000,0.300,1008.000,0.500,147.000,1.000,78.000,5.000,0
"07/09/06","08:08:43","AMMA06",29217.000,"cc",28304.262,6.00,2830.426,1,6,0.100,17709.000,0.200,10122.000,0.300,1129.000,0.500,158.000,1.000,99.000,5.000,0
"07/09/06","08:08:49","AMMA06",29407.000,"cc",28303.178,6.00,2830.318,1,6,0.100,18020.000,0.200,10074.000,0.300,1079.000,0.500,154.000,1.000,80.000,5.000,0
"07/09/06","08:08:55","AMMA06",29358.000,"cc",28365.555,6.00,2836.556,1,6,0.100,17944.000,0.200,10034.000,0.300,1134.000,0.500,162.000,1.000,84.000,5.000,0
"07/09/06","08:09:01","AMMA06",29101.000,"cc",28274.031,6.00,2827.403,1,6,0.100,17746.000,0.200,10071.000,0.300,1054.000,0.500,151.000,1.000,79.000,5.000,0
"07/09/06","08:09:07","AMMA06",29053.000,"cc",28354.539,6.00,2835.454,1,6,0.100,17704.000,0.200,10119.000,0.300,1010.000,0.500,127.000,1.000,93.000,5.000,0
"07/09/06","08:09:13","AMMA06",28762.000,"cc",28312.885,6.00,2831.289,1,6,0.100,17501.000,0.200,10028.000,0.300,1036.000,0.500,124.000,1.000,73.000,5.000,0
"07/09/06","08:09:19","AMMA06",29237.000,"cc",28286.863,6.00,2828.687,1,6,0.100,17688.000,0.200,10338.000,0.300,1019.000,0.500,114.000,1.000,78.000,5.000,0
"07/09/06","08:09:25","AMMA06",28853.000,"cc",28318.191,6.00,2831.819,1,6,0.100,17598.000,0.200,10008.000,0.300,1055.000,0.500,120.000,1.000,72.000,5.000,0
"07/09/06","08:09:31","AMMA06",29074.000,"cc",28356.518,6.00,2835.652,1,6,0.100,17691.000,0.200,10038.000,0.300,1113.000,0.500,145.000,1.000,87.000,5.000,0
"07/09/06","08:09:37","AMMA06",28776.000,"cc",28311.502,6.00,2831.150,1,6,0.100,17459.000,0.200,10076.000,0.300,1044.000,0.500,133.000,1.000,64.000,5.000,0
"07/09/06","08:09:43","AMMA06",29111.000,"cc",28251.229,6.00,2825.123,1,6,0.100,17669.000,0.200,10145.000,0.300,1106.000,0.500,118.000,1.000,73.000,5.000,0
"07/09/06","08:09:49","AMMA06",29097.000,"cc",28354.606,6.00,2835.461,1,6,0.100,17688.000,0.200,10145.000,0.300,1067.000,0.500,136.000,1.000,61.000,5.000,0
"07/09/06","08:09:55","AMMA06",29074.000,"cc",28308.842,6.00,2830.884,1,6,0.100,17504.000,0.200,10296.000,0.300,1075.000,0.500,124.000,1.000,75.000,5.000,0
"07/09/06","08:10:01","AMMA06",28990.000,"cc",28304.936,6.00,2830.494,1,6,0.100,17512.000,0.200,10221.000,0.300,1052.000,0.500,123.000,1.000,82.000,5.000,0
"07/09/06","08:10:07","AMMA06",28914.000,"cc",28319.656,6.00,2831.966,1,6,0.100,17488.000,0.200,10137.000,0.300,1059.000,0.500,149.000,1.000,81.000,5.000,0
"07/09/06","08:10:13","AMMA06",29293.000,"cc",28329.129,6.00,2832.913,1,6,0.100,17692.000,0.200,10292.000,0.300,1108.000,0.500,115.000,1.000,86.000,5.000,0
"07/09/06","08:10:19","AMMA06",29352.000,"cc",28355.459,6.00,2835.546,1,6,0.100,17815.000,0.200,10248.000,0.300,1086.000,0.500,138.000,1.000,65.000,5.000,0
"07/09/06","08:10:25","AMMA06",29236.000,"cc",28291.522,6.00,2829.152,1,6,0.100,17742.000,0.200,10181.000,0.300,1092.000,0.500,146.000,1.000,75.000,5.000,0
"07/09/06","08:10:31","AMMA06",29299.000,"cc",28286.160,6.00,2828.616,1,6,0.100,17937.000,0.200,10124.000,0.300,1041.000,0.500,128.000,1.000,69.000,5.000,0
"07/09/06","08:10:37","AMMA06",28934.000,"cc",28327.684,6.00,2832.769,1,6,0.100,17555.000,0.200,10178.000,0.300,1007.000,0.500,121.000,1.000,73.000,5.000,0
"07/09/06","08:10:43","AMMA06",28904.000,"cc",28318.920,6.00,2831.892,1,6,0.100,17542.000,0.200,10085.000,0.300,1095.000,0.500,119.000,1.000,63.000,5.000,0
"07/09/06","08:10:49","AMMA06",29487.000,"cc",28286.600,6.00,2828.660,1,6,0.100,17876.000,0.200,10261.000,0.300,1121.000,0.500,142.000,1.000,87.000,5.000,0
"07/09/06","08:10:55","AMMA06",28765.000,"cc",28325.113,6.00,2832.512,1,6,0.100,17647.000,0.200,9889.000,0.300,1056.000,0.500,118.000,1.000,55.000,5.000,0
"07/09/06","08:11:01","AMMA06",29045.000,"cc",28368.725,6.00,2836.873,1,6,0.100,17746.000,0.200,10054.000,0.300,1046.000,0.500,135.000,1.000,64.000,5.000,0
"07/09/06","08:11:07","AMMA06",29037.000,"cc",28307.547,6.00,2830.755,1,6,0.100,17649.000,0.200,10091.000,0.300,1089.000,0.500,121.000,1.000,87.000,5.000,0
"07/09/06","08:11:13","AMMA06",28996.000,"cc",28321.481,6.00,2832.148,1,6,0.100,17683.000,0.200,10065.000,0.300,1058.000,0.500,120.000,1.000,70.000,5.000,0
"07/09/06","08:11:19","AMMA06",29031.000,"cc",28313.330,6.00,2831.333,1,6,0.100,17832.000,0.200,9977.000,0.300,1034.000,0.500,125.000,1.000,63.000,5.000,0
"07/09/06","08:11:25","AMMA06",28994.000,"cc",28296.475,6.00,2829.648,1,6,0.100,17811.000,0.200,9972.000,0.300,1030.000,0.500,116.000,1.000,65.000,5.000,0
"07/09/06","08:11:31","AMMA06",28808.000,"cc",28328.783,6.00,2832.878,1,6,0.100,17534.000,0.200,9992.000,0.300,1067.000,0.500,135.000,1.000,80.000,5.000,0
"07/09/06","08:11:37","AMMA06",28756.000,"cc",28346.244,6.00,2834.625,1,6,0.100,17796.000,0.200,9793.000,0.300,973.000,0.500,114.000,1.000,80.000,5.000,0
"07/09/06","08:11:43","AMMA06",28715.000,"cc",28291.482,6.00,2829.148,1,6,0.100,17563.000,0.200,9906.000,0.300,1040.000,0.500,127.000,1.000,79.000,5.000,0
"07/09/06","08:11:49","AMMA06",28966.000,"cc",28343.975,6.00,2834.398,1,6,0.100,17891.000,0.200,9965.000,0.300,941.000,0.500,103.000,1.000,66.000,5.000,0
"07/09/06","08:11:55","AMMA06",28948.000,"cc",28295.867,6.00,2829.587,1,6,0.100,17836.000,0.200,9850.000,0.300,1049.000,0.500,151.000,1.000,62.000,5.000,0
"07/09/06","08:12:01","AMMA06",28617.000,"cc",28260.316,6.00,2826.032,1,6,0.100,17704.000,0.200,9705.000,0.300,1003.000,0.500,133.000,1.000,72.000,5.000,0
"07/09/06","08:12:07","AMMA06",28792.000,"cc",28336.826,6.00,2833.683,1,6,0.100,17625.000,0.200,10024.000,0.300,957.000,0.500,126.000,1.000,60.000,5.000,0
"07/09/06","08:12:13","AMMA06",28795.000,"cc",28364.902,6.00,2836.491,1,6,0.100,17512.000,0.200,10024.000,0.300,1045.000,0.500,128.000,1.000,86.000,5.000,0
"07/09/06","08:12:19","AMMA06",28599.000,"cc",28297.998,6.00,2829.800,1,6,0.100,17412.000,0.200,9943.000,0.300,1040.000,0.500,126.000,1.000,78.000,5.000,0
"07/09/06","08:12:25","AMMA06",29040.000,"cc",28332.574,6.00,2833.258,1,6,0.100,17849.000,0.200,9954.000,0.300,1032.000,0.500,125.000,1.000,80.000,5.000,0
"07/09/06","08:12:31","AMMA06",28827.000,"cc",28306.029,6.00,2830.603,1,6,0.100,17731.000,0.200,9922.000,0.300,978.000,0.500,128.000,1.000,68.000,5.000,0
"07/09/06","08:12:37","AMMA06",29109.000,"cc",28319.762,6.00,2831.976,1,6,0.100,18020.000,0.200,9876.000,0.300,1034.000,0.500,111.000,1.000,68.000,5.000,0
"07/09/06","08:12:43","AMMA06",29156.000,"cc",28303.533,6.00,2830.354,1,6,0.100,17784.000,0.200,10106.000,0.300,1062.000,0.500,135.000,1.000,69.000,5.000,0
"07/09/06","08:12:49","AMMA06",29301.000,"cc",28255.523,6.00,2825.553,1,6,0.100,17914.000,0.200,10137.000,0.300,1043.000,0.500,143.000,1.000,64.000,5.000,0
"07/09/06","08:12:55","AMMA06",29057.000,"cc",28338.836,6.00,2833.884,1,6,0.100,17660.000,0.200,10223.000,0.300,1005.000,0.500,113.000,1.000,56.000,5.000,0
"07/09/06","08:13:01","AMMA06",29145.000,"cc",28320.180,6.00,2832.018,1,6,0.100,17898.000,0.200,10044.000,0.300,1029.000,0.500,119.000,1.000,55.000,5.000,0
"07/09/06","08:13:07","AMMA06",29212.000,"cc",28341.824,6.00,2834.183,1,6,0.100,18131.000,0.200,9893.000,0.300,1007.000,0.500,129.000,1.000,52.000,5.000,0
"07/09/06","08:13:13","AMMA06",28992.000,"cc",28308.857,6.00,2830.886,1,6,0.100,17802.000,0.200,9938.000,0.300,1046.000,0.500,139.000,1.000,67.000,5.000,0
"07/09/06","08:13:19","AMMA06",29170.000,"cc",28323.572,6.00,2832.357,1,6,0.100,17818.000,0.200,10071.000,0.300,1072.000,0.500,144.000,1.000,65.000,5.000,0
"07/09/06","08:13:25","AMMA06",28869.000,"cc",28349.928,6.00,2834.993,1,6,0.100,17582.000,0.200,10045.000,0.300,1049.000,0.500,116.000,1.000,77.000,5.000,0
"07/09/06","08:13:31","AMMA06",28637.000,"cc",28311.305,6.00,2831.131,1,6,0.100,17384.000,0.200,10034.000,0.300,980.000,0.500,157.000,1.000,82.000,5.000,0
"07/09/06","08:13:37","AMMA06",28934.000,"cc",28292.129,6.00,2829.213,1,6,0.100,17690.000,0.200,9912.000,0.300,1102.000,0.500,151.000,1.000,79.000,5.000,0
"07/09/06","08:13:43","AMMA06",28776.000,"cc",28301.561,6.00,2830.156,1,6,0.100,17609.000,0.200,9910.000,0.300,1041.000,0.500,137.000,1.000,79.000,5.000,0
"07/09/06","08:13:49","AMMA06",28978.000,"cc",28293.416,6.00,2829.342,1,6,0.100,17744.000,0.200,9980.000,0.300,1073.000,0.500,119.000,1.000,62.000,5.000,0
"07/09/06","08:13:55","AMMA06",28492.000,"cc",28341.953,6.00,2834.196,1,6,0.100,17325.000,0.200,9964.000,0.300,1012.000,0.500,129.000,1.000,62.000,5.000,0
"07/09/06","08:14:01","AMMA06",28825.000,"cc",28340.574,6.00,2834.058,1,6,0.100,17719.000,0.200,9910.000,0.300,990.000,0.500,135.000,1.000,71.000,5.000,0
"07/09/06","08:14:07","AMMA06",28951.000,"cc",28302.861,6.00,2830.286,1,6,0.100,17846.000,0.200,9867.000,0.300,1035.000,0.500,117.000,1.000,86.000,5.000,0
"07/09/06","08:14:13","AMMA06",28952.000,"cc",28289.283,6.00,2828.929,1,6,0.100,17879.000,0.200,9873.000,0.300,1016.000,0.500,107.000,1.000,77.000,5.000,0
"07/09/06","08:14:19","AMMA06",28783.000,"cc",28343.666,6.00,2834.367,1,6,0.100,17839.000,0.200,9714.000,0.300,1054.000,0.500,108.000,1.000,68.000,5.000,0